sat.trackr.live / text

‹ back to catalog

STARLINK-31300

NORAD 58878 · 2024-020C

PAYLOAD ACTIVE UNKNOWN

§ Identity

Operator
Country
US
Launch date
2024-01-29
Launch site
AFWTR
Launch vehicle
Mass (kg)
RCS (m²)

Purposes: comms

External: N2YO · Heavens-Above · Gunter

§ Orbital elements

Epoch: 2026-09-19T22:07:37.286112Z

Period
93.85 min
Inclination
53.1582°
Eccentricity
0.0001129
Mean motion
15.34387346 rev/d
Perigee alt
462.0 km
Apogee alt
463.5 km
Semi-major
6,840.9 km
B*
6.6188e-5
RAAN
136.3545°
Arg perigee
86.0020°
Mean anomaly
274.1112°
Rev number
14,786

§ Raw data

STARLINK-313001 58878U 24020C   26262.92195933  .00001860  00000+0  66188-4 0  99902 58878  53.1582 136.3545 0001129  86.0020 274.1112 15.34387346147866

JSON: /api/v1/satellites/58878 · /tle

For live sub-satellite position, see the globe view (requires WebGL).

§ Visibility from observer

Set your observer location to see the next 7 days of passes ≥ 10°. The values pass through the URL so the page stays shareable.

No JS? Fill the form by hand. The geolocation button needs JavaScript.